Flag Weather past 2 weeks in Providence, Rhode Island, U.S.A.

Now
56 °F

Heavy rain. Fog.


Feels Like: 51 °F
Forecast: 42 / 64 °F
Wind: 21 mph from Southeast

Location: Green State Airport

Current Time: Nov 24, 2014 at 7:29:28 AM

Latest Report: Nov 24, 2014 at 6:51 AM


Visibility: 1 mi

Pressure: 29.87 "Hg

Humidity: 97%

Dew point: 55 °F

Location of ProvidenceLocation

Historic Weather in Providence — Graph

°F

Providence temperature yesterday

Maximum temperature yesterday: 58 °F (at 1:51 PM)
Minimum temperature yesterday: 39 °F (at 11:51 PM)
Average temperature yesterday: 46 °F

Past Weeks' High & Low Weather Summary

 TemperatureHumidityPressure
High62 °F (Nov 12, 2:51 PM)100% (Nov 11, 9:51 PM)30.47 "Hg (Nov 11, 9:51 PM)
Low20 °F (Nov 22, 3:51 AM)29% (Nov 19, 2:51 PM)29.44 "Hg (Nov 17, 10:02 PM)
Average40 °F63%30.05 "Hg
* Reported Nov 9 5:51 AM — Nov 24 5:51 AM, Providence, Weather by CustomWeather, © 2014

Note: Actual official high and low records may vary slightly from our data, if they occured in-between our weather recording intervals... More about our weather records

Advertising

Providence weather history for previous 24 hours

 ConditionsComfort  
Time TempWeatherWind HumidityBarometerVisibility
5:51 AM
Nov 24
56 °FRain. Fog.15 mph90%29.90 "Hg4 mi
4:51 AM56 °FLight rain. Mostly cloudy.13 mph93%29.92 "Hg7 mi
4:04 AM44 °FLight rain. Fog.3 mph93%29.97 "Hg3 mi
3:51 AM43 °FLight rain. Fog.No wind89%29.98 "Hg2 mi
2:51 AM42 °FLow clouds.No wind85%30.01 "Hg8 mi
1:51 AM41 °FLow clouds.3 mph86%30.05 "Hg8 mi
12:51 AM40 °FClear.No wind86%30.07 "Hg8 mi
11:51 PM
Nov 23
39 °FMostly cloudy.No wind89%30.10 "Hg8 mi
10:51 PM41 °FClear.No wind86%30.12 "Hg9 mi
9:51 PM41 °FClear.3 mph86%30.14 "Hg9 mi
8:51 PM41 °FPassing clouds.8 mph82%30.14 "Hg10 mi
7:51 PM42 °FPartly cloudy.3 mph73%30.15 "Hg10 mi
6:51 PM43 °FPassing clouds.No wind65%30.16 "Hg10 mi
5:51 PM46 °FPassing clouds.3 mph56%30.16 "Hg10 mi
4:51 PM50 °FPassing clouds.8 mph48%30.14 "Hg10 mi
3:51 PM53 °FPartly sunny.15 mph51%30.14 "Hg10 mi
2:51 PM56 °FBroken clouds.6 mph46%30.13 "Hg10 mi
1:51 PM58 °FPassing clouds.8 mph39%30.13 "Hg10 mi
12:51 PM57 °FPassing clouds.9 mph39%30.13 "Hg10 mi
11:51 AM55 °FScattered clouds.10 mph40%30.15 "Hg10 mi
10:51 AM52 °FScattered clouds.10 mph43%30.16 "Hg10 mi
9:51 AM49 °FPartly sunny.7 mph50%30.18 "Hg10 mi
8:51 AM45 °FLight rain. Broken clouds.9 mph58%30.18 "Hg10 mi
7:51 AM45 °FPartly sunny.8 mph53%30.17 "Hg10 mi
Weather by CustomWeather, © 2014

See weather overviewHow to use our weather pages